Flag for Germany Weather past 2 weeks in Bad Hersfeld, Hesse, Germany

Now
45 °F

Scattered clouds.


Feels Like: 42 °F
Forecast: 29 / 58 °F
Wind: 5 mph from North

Location: Fritzlar Airport

Current Time: Apr 18, 2015 at 10:14:39 AM

Latest Report: Apr 18, 2015 at 9:20 AM


Visibility: N/A

Pressure: 30.30 "Hg

Humidity: 71%

Dew point: 36 °F

Location of Bad HersfeldLocation

Historic Weather in Bad Hersfeld — Graph

°F

Bad Hersfeld temperature yesterday

Maximum temperature yesterday: 50 °F (at 11:20 AM)
Minimum temperature yesterday: 37 °F (at 5:20 AM)
Average temperature yesterday: 45 °F

Past Weeks' High & Low Weather Summary

 TemperatureHumidityPressure
High75 °F (Apr 15, 3:20 PM)100% (Apr 9, 6:50 AM)30.63 "Hg (Apr 9, 6:50 AM)
Low27 °F (Apr 7, 6:20 AM)27% (Apr 15, 2:20 PM)29.92 "Hg (Apr 15, 6:20 PM)
Average47 °F66%30.23 "Hg
* Reported Apr 3 8:20 AM — Apr 18 8:20 AM, Bad Hersfeld, Weather by CustomWeather, © 2015

Note: Actual official high and low records may vary slightly from our data, if they occured in-between our weather recording intervals... More about our weather records

Advertising

Bad Hersfeld weather history for previous 24 hours

 ConditionsComfort  
Time TempWeatherWind HumidityBarometerVisibility
8:20 AM
Sat, Apr 18
43 °FPassing clouds.6 mph71%30.27 "HgN/A
7:20 AM37 °FPassing clouds.5 mph87%30.27 "HgN/A
6:20 AM39 °FPassing clouds.5 mph81%30.24 "HgN/A
5:20 AM39 °FChilly.5 mph81%30.21 "HgN/A
4:20 AM41 °FQuite cool.6 mph70%30.21 "HgN/A
3:20 AM41 °FQuite cool.7 mph70%30.21 "HgN/A
2:20 AM41 °FQuite cool.6 mph70%30.18 "HgN/A
1:20 AM41 °FQuite cool.2 mph70%30.18 "HgN/A
12:20 AM43 °FQuite cool.5 mph66%30.15 "HgN/A
11:20 PM
Fri, Apr 17
43 °FQuite cool.6 mph61%30.15 "HgN/A
10:20 PM41 °FQuite cool.5 mph66%30.12 "HgN/A
9:20 PM46 °FCool.5 mph53%30.09 "HgN/A
8:20 PM48 °FCool.8 mph50%30.07 "HgN/A
7:20 PM50 °FPartly sunny.9 mph43%30.07 "HgN/A
6:20 PM50 °FPartly sunny.8 mph47%30.04 "HgN/A
5:20 PM50 °FPartly sunny.10 mph47%30.04 "HgN/A
4:20 PM50 °FPartly sunny.12 mph47%30.04 "HgN/A
3:20 PM50 °FPartly sunny.10 mph50%30.04 "HgN/A
2:20 PM50 °FPartly sunny.9 mph54%30.04 "HgN/A
1:20 PM50 °FBroken clouds.10 mph54%30.04 "HgN/A
12:20 PM48 °FPartly sunny.10 mph58%30.01 "HgN/A
12:00 PM48 °FPartly sunny.10 mph58%30.01 "HgN/A
11:20 AM50 °FBroken clouds.7 mph50%30.01 "HgN/A
10:20 AM46 °FBroken clouds.7 mph62%30.01 "HgN/A
Weather by CustomWeather, © 2015

See weather overviewHow to use our weather pages